Flag for Zimbabwe Weather past 2 weeks in Harare, Zimbabwe

Now
72 °F

Rain showers. Broken clouds.


Feels Like: 74 °F
Forecast: 56 / 67 °F
Wind: 9 mph from Southeast

Location: Harare Kutsaga Airport

Current Time: Mar 2, 2015 at 5:23:50 PM

Latest Report: Mar 2, 2015 at 4:00 PM


Visibility: 2 mi

Pressure: 30.07 "Hg

Humidity: 73%

Dew point: 63 °F

Location of HarareLocation

Historic Weather in Harare — Graph

°F

Harare temperature yesterday

Maximum temperature yesterday: 75 °F (at 1:00 PM)
Minimum temperature yesterday: 63 °F (at 4:00 PM)
Average temperature yesterday: 66 °F

Past Weeks' High & Low Weather Summary

 TemperatureHumidityPressure
High86 °F (Feb 27, 4:00 PM)100% (Feb 15, 9:00 PM)30.27 "Hg (Feb 15, 9:00 PM)
Low55 °F (Feb 18, 4:00 AM)31% (Feb 20, 12:00 PM)29.98 "Hg (Feb 15, 4:00 PM)
Average69 °F77%30.11 "Hg
* Reported Feb 15 4:00 PM — Mar 2 4:00 PM, Harare, Weather by CustomWeather, © 2015

Note: Actual official high and low records may vary slightly from our data, if they occured in-between our weather recording intervals... More about our weather records

Advertising

Harare weather history for previous 24 hours

 ConditionsComfort  
Time TempWeatherWind HumidityBarometerVisibility
4:00 PM
Mon, Mar 2
72 °FRain showers. Broken clouds.9 mph73%30.07 "Hg2 mi
3:00 PM77 °FBroken clouds.10 mph61%30.04 "HgN/A
1:00 PM77 °FScattered clouds.12 mph61%30.07 "HgN/A
12:00 PM75 °FPassing clouds.10 mph69%30.12 "HgN/A
11:00 AM72 °FPartly sunny.8 mph78%30.12 "HgN/A
9:00 AM70 °FBroken clouds.8 mph83%30.12 "HgN/A
8:00 AM66 °FBroken clouds.5 mph100%30.09 "HgN/A
7:00 AM63 °FBroken clouds.5 mph100%30.07 "HgN/A
6:00 AM63 °FLow clouds.1 mph100%30.07 "Hg5 mi
5:00 AM61 °FMostly cloudy.6 mph100%30.07 "Hg5 mi
4:00 AM61 °FPassing clouds.3 mph100%30.04 "HgN/A
3:00 AM61 °FPassing clouds.8 mph100%30.07 "HgN/A
2:00 AM64 °FMostly cloudy.No wind100%30.07 "HgN/A
12:00 AM64 °FOvercast.2 mph100%30.09 "HgN/A
11:00 PM
Sun, Mar 1
64 °FMild.3 mph100%30.09 "HgN/A
10:00 PM64 °FMild.1 mph100%30.07 "HgN/A
9:00 PM64 °FLight rain. Overcast.3 mph100%30.07 "HgN/A
8:00 PM64 °FMild.6 mph100%30.04 "HgN/A
7:00 PM64 °FPassing clouds.6 mph100%30.01 "HgN/A
6:00 PM63 °FPartly sunny.3 mph100%30.01 "HgN/A
5:00 PM63 °FThunderstorms. Partly sunny.6 mph100%29.98 "HgN/A
Weather by CustomWeather, © 2015

See weather overviewHow to use our weather pages